Weather History for Manistique, MI

Change the Weather History Date:

Sunday, November 27, 2011

  Actual Average Record
Temperature  
Mean Temperature 36 °F -  
Max Temperature 42 °F 37 °F 49 °F (1990)
Min Temperature 30 °F 23 °F 7 °F (1975)
Degree Days  
Heating Degree Days 29    
Moisture  
Dew Point 29 °F    
Average Humidity 82    
Maximum Humidity 93    
Minimum Humidity 70    
Precipitation  
Precipitation 0.00 in - - ()
Sea Level Pressure  
Sea Level Pressure 29.90 in    
Wind  
Wind Speed 13 mph (NNW)    
Max Wind Speed 21 mph    
Max Gust Speed 30 mph    
Visibility 9 miles    
Events Rain , Snow    
Averages and records for this station are not official NWS values.
T = Trace of Precipitation, MM = Missing Value Source: NWS Daily Summary

Daily Weather History Graph

Daily Weather History Graph

Search for Another Location

Airport:

Trip Planner

Search our weather history database for the weather conditions in past years. The results will help you decide how hot, cold, wet, or windy it might be!

Date:

Astronomy

Nov. 27, 2011 Rise Set
Actual Time 8:00 AM EST 5:03 PM EST
Civil Twilight 7:27 AM EST 5:36 PM EST
Nautical Twilight 6:50 AM EST 6:13 PM EST
Astronomical Twilight 6:14 AM EST 6:49 PM EST
Moon 10:26 AM EST (11/27) 7:40 PM EST (11/27)
Length of Visible Light 10h 09m
Length of Day
9h 02m
Waxing Crescent, 8% of the Moon is Illuminated
Nov 27
Waxing Crescent
Dec 2
First Quarter
Dec 10
Full
Dec 17
Last Quarter
Dec 24
New

Hourly Weather History & Observations

Time (EST) Temp. Windchill Dew Point Humidity Pressure Visibility Wind Dir Wind Speed Gust Speed Precip Events Conditions
12:35 AM 42.8 °F 35.8 °F 39.2 °F 87% 29.74 in 10.0 mi NW 13.8 mph 19.6 mph N/A   Overcast
1:14 AM 41.0 °F 33.9 °F 37.4 °F 87% 29.74 in 10.0 mi NW 12.7 mph 18.4 mph N/A   Overcast
1:35 AM 41.0 °F 34.7 °F 37.4 °F 87% 29.75 in 10.0 mi NNW 10.4 mph 18.4 mph N/A   Overcast
1:54 AM 41.0 °F 33.5 °F 37.4 °F 87% 29.75 in 10.0 mi NNW 13.8 mph 20.7 mph N/A   Overcast
2:15 AM 39.2 °F 32.0 °F 37.4 °F 93% 29.75 in 7.0 mi NNW 11.5 mph 21.9 mph N/A   Overcast
2:34 AM 39.2 °F 29.8 °F 35.6 °F 87% 29.76 in 7.0 mi NNW 18.4 mph 25.3 mph N/A   Overcast
2:54 AM 39.2 °F 30.8 °F 35.6 °F 87% 29.77 in 10.0 mi NNW 15.0 mph 23.0 mph N/A   Overcast
3:15 AM 39.2 °F 31.6 °F 35.6 °F 87% 29.77 in 10.0 mi NNW 12.7 mph 18.4 mph N/A   Overcast
3:34 AM 37.4 °F 29.8 °F 35.6 °F 93% 29.77 in 10.0 mi NNW 11.5 mph 19.6 mph N/A   Overcast
3:54 AM 37.4 °F 29.3 °F 33.8 °F 87% 29.78 in 10.0 mi NNW 12.7 mph 16.1 mph N/A   Drizzle
4:15 AM 37.4 °F 31.4 °F 35.6 °F 93% 29.77 in 10.0 mi NNW 8.1 mph 16.1 mph N/A Rain Light Rain
4:34 AM 37.4 °F 30.8 °F 33.8 °F 87% 29.77 in 10.0 mi NNW 9.2 mph - N/A Rain Light Rain
5:15 AM 37.4 °F 29.3 °F 33.8 °F 87% 29.79 in 10.0 mi NW 12.7 mph 27.6 mph N/A   Light Drizzle
5:34 AM 35.6 °F 28.6 °F 33.8 °F 93% 29.77 in 10.0 mi NNW 9.2 mph 18.4 mph N/A   Overcast
6:14 AM 35.6 °F 28.6 °F 32.0 °F 87% 29.80 in 10.0 mi NW 9.2 mph 19.6 mph N/A   Overcast
6:34 AM 35.6 °F 28.6 °F 32.0 °F 87% 29.80 in 10.0 mi NW 9.2 mph 16.1 mph N/A   Overcast
6:55 AM 35.6 °F 28.0 °F 32.0 °F 87% 29.81 in 10.0 mi NW 10.4 mph - N/A   Overcast
7:14 AM 35.6 °F 27.5 °F 32.0 °F 87% 29.82 in 10.0 mi NW 11.5 mph - N/A   Overcast
7:35 AM 35.6 °F 27.5 °F 32.0 °F 87% 29.82 in 7.0 mi NW 11.5 mph 17.3 mph N/A   Overcast
7:55 AM 35.6 °F 28.0 °F 32.0 °F 87% 29.82 in 10.0 mi NW 10.4 mph 18.4 mph N/A   Overcast
8:14 AM 33.8 °F 25.3 °F 30.2 °F 87% 29.82 in 7.0 mi NW 11.5 mph 17.3 mph N/A   Light Drizzle
8:35 AM 33.8 °F 25.3 °F 30.2 °F 87% 29.84 in 10.0 mi NW 11.5 mph 19.6 mph N/A   Overcast
8:54 AM 33.8 °F 24.3 °F 30.2 °F 87% 29.85 in 7.0 mi NW 13.8 mph 20.7 mph N/A Snow Light Snow
9:14 AM 33.8 °F 25.8 °F 30.2 °F 87% 29.86 in 5.0 mi NNW 10.4 mph 23.0 mph N/A Snow Light Snow
9:35 AM 33.8 °F 23.5 °F 30.2 °F 87% 29.87 in 10.0 mi NNW 16.1 mph 23.0 mph N/A   Overcast
10:14 AM 33.8 °F 23.9 °F 28.4 °F 81% 29.89 in 10.0 mi NNW 15.0 mph 25.3 mph N/A Snow Light Snow
10:35 AM 33.8 °F 23.5 °F 28.4 °F 81% 29.90 in 10.0 mi NW 16.1 mph 26.5 mph N/A   Overcast
10:54 AM 33.8 °F 23.2 °F 28.4 °F 81% 29.91 in 10.0 mi NW 17.3 mph 29.9 mph N/A   Overcast
11:14 AM 33.8 °F 23.9 °F 28.4 °F 81% 29.91 in 7.0 mi NNW 15.0 mph 21.9 mph N/A   Overcast
11:35 AM 33.8 °F 23.5 °F 28.4 °F 81% 29.91 in 10.0 mi NNW 16.1 mph 26.5 mph N/A   Overcast
11:54 AM 33.8 °F 23.5 °F 28.4 °F 81% 29.91 in 10.0 mi NNW 16.1 mph 28.8 mph N/A   Overcast
12:15 PM 35.6 °F 25.9 °F 28.4 °F 75% 29.90 in 10.0 mi NNW 16.1 mph 26.5 mph N/A   Overcast
12:54 PM 33.8 °F 24.3 °F 26.6 °F 75% 29.91 in 10.0 mi NNW 13.8 mph 27.6 mph N/A   Overcast
1:15 PM 33.8 °F 23.5 °F 26.6 °F 75% 29.91 in 10.0 mi NNW 16.1 mph 21.9 mph N/A   Overcast
1:34 PM 33.8 °F 24.3 °F 26.6 °F 75% 29.91 in 10.0 mi NNW 13.8 mph 27.6 mph N/A   Overcast
1:54 PM 33.8 °F 24.3 °F 26.6 °F 75% 29.91 in 10.0 mi NNW 13.8 mph 23.0 mph N/A   Overcast
2:14 PM 33.8 °F 22.2 °F 24.8 °F 70% 29.92 in 10.0 mi NNW 20.7 mph 27.6 mph N/A   Overcast
2:34 PM 33.8 °F 23.5 °F 24.8 °F 70% 29.92 in 10.0 mi NNW 16.1 mph 25.3 mph N/A   Overcast
2:54 PM 33.8 °F 25.8 °F 24.8 °F 70% 29.93 in 10.0 mi NNW 10.4 mph 19.6 mph N/A   Overcast
3:14 PM 33.8 °F 24.3 °F 24.8 °F 70% 29.94 in 10.0 mi NNW 13.8 mph 20.7 mph N/A   Overcast
3:35 PM 32.0 °F 21.6 °F 24.8 °F 75% 29.95 in 10.0 mi NNW 15.0 mph 25.3 mph N/A   Overcast
3:55 PM 32.0 °F 21.6 °F 24.8 °F 75% 29.96 in 10.0 mi NNW 15.0 mph 24.2 mph N/A   Overcast
4:14 PM 32.0 °F 21.2 °F 24.8 °F 75% 29.97 in 10.0 mi NNW 16.1 mph 21.9 mph N/A   Overcast
4:35 PM 32.0 °F 23.0 °F 26.6 °F 80% 29.98 in 10.0 mi NNW 11.5 mph 17.3 mph N/A   Overcast
4:54 PM 32.0 °F 24.8 °F 26.6 °F 80% 29.99 in 7.0 mi NW 8.1 mph - N/A Snow Light Snow
5:14 PM 30.2 °F 21.3 °F 26.6 °F 86% 29.99 in 5.0 mi NW 10.4 mph - N/A Snow Light Snow
5:35 PM 30.2 °F 21.9 °F 28.4 °F 93% 29.99 in 10.0 mi NW 9.2 mph - N/A Snow Light Snow
5:54 PM 30.2 °F 21.9 °F 28.4 °F 93% 30.00 in 2.0 mi NW 9.2 mph - N/A Snow Light Snow
6:14 PM 30.2 °F 21.3 °F 26.6 °F 86% 30.01 in 10.0 mi NW 10.4 mph 17.3 mph N/A Snow Light Snow
6:35 PM 32.0 °F 22.1 °F 26.6 °F 80% 30.01 in 10.0 mi NNW 13.8 mph 18.4 mph N/A   Overcast
6:54 PM 32.0 °F 23.6 °F 26.6 °F 80% 30.01 in 10.0 mi NNW 10.4 mph - N/A   Overcast
7:15 PM 32.0 °F 24.8 °F 26.6 °F 80% 30.02 in 10.0 mi NNW 8.1 mph 17.3 mph N/A   Overcast
7:35 PM 32.0 °F 24.8 °F 24.8 °F 75% 30.02 in 10.0 mi NNW 8.1 mph - N/A   Overcast
7:54 PM 32.0 °F 24.8 °F 24.8 °F 75% 30.03 in 10.0 mi NNW 8.1 mph 16.1 mph N/A   Overcast
8:15 PM 32.0 °F 24.2 °F 24.8 °F 75% 30.03 in 10.0 mi NNW 9.2 mph - N/A   Overcast
8:34 PM 32.0 °F 24.2 °F 24.8 °F 75% 30.04 in 10.0 mi NW 9.2 mph - N/A   Overcast
8:54 PM 32.0 °F 22.5 °F 24.8 °F 75% 30.04 in 10.0 mi NNW 12.7 mph 18.4 mph N/A   Overcast
9:15 PM 32.0 °F 23.6 °F 24.8 °F 75% 30.05 in 10.0 mi NNW 10.4 mph 24.2 mph N/A   Overcast
9:34 PM 32.0 °F 24.8 °F 24.8 °F 75% 30.05 in 10.0 mi NW 8.1 mph - N/A   Overcast
9:54 PM 32.0 °F 24.2 °F 24.8 °F 75% 30.06 in 10.0 mi NW 9.2 mph 16.1 mph N/A   Overcast
10:14 PM 32.0 °F 24.8 °F 24.8 °F 75% 30.07 in 10.0 mi NNW 8.1 mph - N/A   Overcast
10:34 PM 32.0 °F 25.6 °F 24.8 °F 75% 30.07 in 10.0 mi NNW 6.9 mph - N/A   Overcast
10:55 PM 32.0 °F 26.4 °F 24.8 °F 75% 30.07 in 10.0 mi WNW 5.8 mph - N/A   Overcast
11:14 PM 32.0 °F 27.5 °F 24.8 °F 75% 30.07 in 10.0 mi WNW 4.6 mph - N/A   Overcast
11:34 PM 32.0 °F 26.4 °F 26.6 °F 80% 30.08 in 10.0 mi WNW 5.8 mph - N/A   Overcast
11:55 PM 32.0 °F 28.7 °F 26.6 °F 80% 30.09 in 10.0 mi WNW 3.5 mph - N/A   Overcast